Time,TemperatureF,DewpointF,PressureIn,WindDirection,WindDirectionDegrees,WindSpeedMPH,WindSpeedGustMPH,Humidity,HourlyPrecipIn,Conditions,Clouds,dailyrainin,SoftwareType,DateUTC
2013-02-26 00:14:00,54.0,51.1,29.17,SSE,157,2.2,-999.0,90,-99.99,,,0.04,Acu-Link.com,2013-02-26 06:14:00,
2013-02-26 00:30:00,53.4,49.9,29.18,SE,135,3.7,-999.0,88,-99.99,,,0.05,Acu-Link.com,2013-02-26 06:30:00,
2013-02-26 00:45:00,53.2,49.4,29.18,SSE,157,4.7,-999.0,87,-99.99,,,0.05,Acu-Link.com,2013-02-26 06:45:00,
2013-02-26 01:00:00,53.1,49.3,29.19,SSE,157,3.2,-999.0,87,-99.99,,,0.05,Acu-Link.com,2013-02-26 07:00:00,
2013-02-26 01:15:00,53.2,49.1,29.19,SSE,157,4.7,-999.0,86,-99.99,,,0.05,Acu-Link.com,2013-02-26 07:15:00,
2013-02-26 01:30:00,53.4,49.3,29.19,SSW,202,6.8,-999.0,86,-99.99,,,0.05,Acu-Link.com,2013-02-26 07:30:00,
2013-02-26 01:45:00,53.2,49.1,29.20,South,180,5.3,-999.0,86,-99.99,,,0.05,Acu-Link.com,2013-02-26 07:45:00,
2013-02-26 02:00:00,52.7,48.6,29.21,SE,135,2.7,-999.0,86,-99.99,,,0.05,Acu-Link.com,2013-02-26 08:00:00,
2013-02-26 02:15:00,52.2,48.4,29.19,South,180,3.2,-999.0,87,-99.99,,,0.05,Acu-Link.com,2013-02-26 08:15:00,
2013-02-26 02:30:00,51.6,48.2,29.20,SSE,157,2.7,-999.0,88,-99.99,,,0.05,Acu-Link.com,2013-02-26 08:30:00,
2013-02-26 02:46:00,51.1,48.0,29.20,SE,135,2.2,-999.0,89,-99.99,,,0.05,Acu-Link.com,2013-02-26 08:46:00,
2013-02-26 06:04:00,46.4,39.3,29.26,SE,135,3.7,-999.0,76,-99.99,,,0.05,Acu-Link.com,2013-02-26 12:04:00,
2013-02-26 06:20:00,46.0,39.2,29.26,SE,135,4.2,-999.0,77,-99.99,,,0.05,Acu-Link.com,2013-02-26 12:20:00,
2013-02-26 06:35:00,45.7,38.6,29.25,SSE,157,4.2,-999.0,76,-99.99,,,0.05,Acu-Link.com,2013-02-26 12:35:00,
2013-02-26 06:50:00,45.3,37.9,29.27,SE,135,5.8,-999.0,75,-99.99,,,0.05,Acu-Link.com,2013-02-26 12:50:00,
2013-02-26 07:05:00,45.1,38.0,29.27,SE,135,4.7,-999.0,76,-99.99,,,0.05,Acu-Link.com,2013-02-26 13:05:00,
2013-02-26 07:20:00,45.0,37.6,29.28,SE,135,6.8,-999.0,75,-99.99,,,0.05,Acu-Link.com,2013-02-26 13:20:00,
2013-02-26 07:35:00,45.0,37.2,29.28,ESE,112,5.8,-999.0,74,-99.99,,,0.05,Acu-Link.com,2013-02-26 13:35:00,
2013-02-26 07:50:00,44.8,37.4,29.28,ESE,112,3.2,-999.0,75,-99.99,,,0.05,Acu-Link.com,2013-02-26 13:50:00,
2013-02-26 08:05:00,44.6,36.8,29.28,SSE,157,5.3,-999.0,74,-99.99,,,0.05,Acu-Link.com,2013-02-26 14:05:00,
2013-02-26 08:21:00,44.4,37.0,29.30,ESE,112,5.8,-999.0,75,-99.99,,,0.05,Acu-Link.com,2013-02-26 14:21:00,
2013-02-26 08:36:00,44.2,36.4,29.31,SE,135,3.7,-999.0,74,-99.99,,,0.05,Acu-Link.com,2013-02-26 14:36:00,
2013-02-26 08:51:00,44.4,36.3,29.32,ESE,112,3.2,-999.0,73,-99.99,,,0.05,Acu-Link.com,2013-02-26 14:51:00,
2013-02-26 09:06:00,44.6,35.4,29.33,SE,135,3.7,-999.0,70,-99.99,,,0.05,Acu-Link.com,2013-02-26 15:06:00,
2013-02-26 09:21:00,44.6,35.8,29.34,SE,135,5.8,-999.0,71,-99.99,,,0.05,Acu-Link.com,2013-02-26 15:21:00,
2013-02-26 09:36:00,44.2,35.8,29.34,SE,135,4.2,-999.0,72,-99.99,,,0.05,Acu-Link.com,2013-02-26 15:36:00,
2013-02-26 09:51:00,44.6,36.1,29.34,SSE,157,9.9,-999.0,72,-99.99,,,0.05,Acu-Link.com,2013-02-26 15:51:00,
2013-02-26 10:06:00,46.6,37.0,29.34,SW,225,4.7,-999.0,69,-99.99,,,0.05,Acu-Link.com,2013-02-26 16:06:00,
2013-02-26 10:21:00,45.9,36.3,29.35,SE,135,5.8,-999.0,69,-99.99,,,0.05,Acu-Link.com,2013-02-26 16:21:00,
2013-02-26 10:37:00,44.8,35.6,29.36,ESE,112,7.3,-999.0,70,-99.99,,,0.05,Acu-Link.com,2013-02-26 16:37:00,
2013-02-26 10:52:00,44.2,36.4,29.36,ESE,112,9.4,-999.0,74,-99.99,,,0.05,Acu-Link.com,2013-02-26 16:52:00,
2013-02-26 11:07:00,43.9,35.8,29.35,SSE,157,3.7,-999.0,73,-99.99,,,0.05,Acu-Link.com,2013-02-26 17:07:00,
2013-02-26 11:22:00,44.4,35.6,29.34,East,90,4.2,-999.0,71,-99.99,,,0.05,Acu-Link.com,2013-02-26 17:22:00,
2013-02-26 11:38:00,45.0,35.1,29.34,SE,135,8.9,-999.0,68,-99.99,,,0.05,Acu-Link.com,2013-02-26 17:38:00,
2013-02-26 11:53:00,44.2,34.7,29.35,SE,135,6.3,-999.0,69,-99.99,,,0.05,Acu-Link.com,2013-02-26 17:53:00,
2013-02-26 12:08:00,43.7,34.9,29.37,SE,135,6.3,-999.0,71,-99.99,,,0.05,Acu-Link.com,2013-02-26 18:08:00,
2013-02-26 12:23:00,42.6,34.9,29.37,NE,45,3.2,-999.0,74,-99.99,,,0.05,Acu-Link.com,2013-02-26 18:23:00,
2013-02-26 12:38:00,42.3,35.0,29.38,SW,225,3.7,-999.0,75,-99.99,,,0.05,Acu-Link.com,2013-02-26 18:38:00,
2013-02-26 12:53:00,42.1,35.1,29.37,SSE,157,6.8,-999.0,76,-99.99,,,0.05,Acu-Link.com,2013-02-26 18:53:00,
2013-02-26 13:08:00,41.9,35.2,29.37,ESE,112,5.3,-999.0,77,-99.99,,,0.05,Acu-Link.com,2013-02-26 19:08:00,
2013-02-26 13:23:00,41.9,34.6,29.38,SE,135,4.7,-999.0,75,-99.99,,,0.05,Acu-Link.com,2013-02-26 19:23:00,
2013-02-26 13:38:00,42.1,34.4,29.38,NNW,337,3.2,-999.0,74,-99.99,,,0.05,Acu-Link.com,2013-02-26 19:38:00,
2013-02-26 13:54:00,42.4,34.0,29.39,ESE,112,5.8,-999.0,72,-99.99,,,0.05,Acu-Link.com,2013-02-26 19:54:00,
2013-02-26 14:09:00,42.6,34.2,29.40,SE,135,3.2,-999.0,72,-99.99,,,0.05,Acu-Link.com,2013-02-26 20:09:00,
2013-02-26 14:24:00,42.8,34.1,29.40,ESE,112,3.7,-999.0,71,-99.99,,,0.05,Acu-Link.com,2013-02-26 20:24:00,
2013-02-26 14:39:00,42.3,35.0,29.40,SSW,202,3.7,-999.0,75,-99.99,,,0.05,Acu-Link.com,2013-02-26 20:39:00,
2013-02-26 14:54:00,42.8,34.8,29.40,ESE,112,6.8,-999.0,73,-99.99,,,0.05,Acu-Link.com,2013-02-26 20:54:00,
2013-02-26 15:09:00,43.0,33.9,29.41,ENE,67,2.2,-999.0,70,-99.99,,,0.05,Acu-Link.com,2013-02-26 21:09:00,
2013-02-26 15:25:00,43.3,33.5,29.42,ESE,112,5.3,-999.0,68,-99.99,,,0.05,Acu-Link.com,2013-02-26 21:25:00,
2013-02-26 15:40:00,43.7,33.1,29.43,WSW,247,1.7,-999.0,66,-99.99,,,0.05,Acu-Link.com,2013-02-26 21:40:00,
2013-02-26 15:55:00,43.7,32.7,29.43,SSE,157,3.7,-999.0,65,-99.99,,,0.05,Acu-Link.com,2013-02-26 21:55:00,
2013-02-26 16:10:00,43.3,33.1,29.44,SE,135,6.3,-999.0,67,-99.99,,,0.05,Acu-Link.com,2013-02-26 22:10:00,
2013-02-26 16:25:00,43.3,33.1,29.45,SSE,157,5.8,-999.0,67,-99.99,,,0.05,Acu-Link.com,2013-02-26 22:25:00,
2013-02-26 16:40:00,43.3,32.7,29.45,East,90,3.7,-999.0,66,-99.99,,,0.05,Acu-Link.com,2013-02-26 22:40:00,
2013-02-26 16:56:00,43.3,32.3,29.47,East,90,3.7,-999.0,65,-99.99,,,0.05,Acu-Link.com,2013-02-26 22:56:00,
2013-02-26 17:11:00,43.0,32.1,29.47,SSE,157,7.3,-999.0,65,-99.99,,,0.05,Acu-Link.com,2013-02-26 23:11:00,
2013-02-26 17:26:00,42.8,31.9,29.48,West,270,6.3,-999.0,65,-99.99,,,0.05,Acu-Link.com,2013-02-26 23:26:00,
2013-02-26 17:41:00,42.4,31.9,29.49,SE,135,3.7,-999.0,66,-99.99,,,0.05,Acu-Link.com,2013-02-26 23:41:00,
2013-02-26 17:56:00,42.4,31.5,29.50,NNW,337,5.3,-999.0,65,-99.99,,,0.05,Acu-Link.com,2013-02-26 23:56:00,
2013-02-26 18:11:00,42.3,32.1,29.51,NW,315,2.2,-999.0,67,-99.99,,,0.05,Acu-Link.com,2013-02-27 00:11:00,
2013-02-26 18:26:00,42.1,32.3,29.52,NW,315,6.3,-999.0,68,-99.99,,,0.05,Acu-Link.com,2013-02-27 00:26:00,
2013-02-26 18:41:00,41.9,32.1,29.53,NW,315,4.2,-999.0,68,-99.99,,,0.05,Acu-Link.com,2013-02-27 00:41:00,
2013-02-26 18:56:00,41.7,31.9,29.55,West,270,3.2,-999.0,68,-99.99,,,0.05,Acu-Link.com,2013-02-27 00:56:00,
2013-02-26 19:12:00,41.7,32.3,29.55,West,270,4.7,-999.0,69,-99.99,,,0.05,Acu-Link.com,2013-02-27 01:12:00,
2013-02-26 19:27:00,41.5,32.1,29.56,NE,45,6.3,-999.0,69,-99.99,,,0.05,Acu-Link.com,2013-02-27 01:27:00,
2013-02-26 19:42:00,41.5,31.7,29.55,SE,135,5.8,-999.0,68,-99.99,,,0.05,Acu-Link.com,2013-02-27 01:42:00,
2013-02-26 19:57:00,41.4,32.0,29.57,ESE,112,3.7,-999.0,69,-99.99,,,0.05,Acu-Link.com,2013-02-27 01:57:00,
2013-02-26 20:12:00,41.4,32.0,29.57,NW,315,3.7,-999.0,69,-99.99,,,0.05,Acu-Link.com,2013-02-27 02:12:00,
2013-02-26 20:42:00,41.4,32.0,29.59,SW,225,3.2,-999.0,69,-99.99,,,0.05,Acu-Link.com,2013-02-27 02:42:00,
2013-02-26 20:58:00,41.2,31.8,29.60,West,270,3.7,-999.0,69,-99.99,,,0.05,Acu-Link.com,2013-02-27 02:58:00,
2013-02-26 21:13:00,41.2,31.8,29.59,ESE,112,2.2,-999.0,69,-99.99,,,0.05,Acu-Link.com,2013-02-27 03:13:00,
2013-02-26 21:28:00,41.0,32.0,29.61,NW,315,2.7,-999.0,70,-99.99,,,0.05,Acu-Link.com,2013-02-27 03:28:00,
2013-02-26 21:43:00,41.0,32.0,29.61,WNW,292,4.2,-999.0,70,-99.99,,,0.05,Acu-Link.com,2013-02-27 03:43:00,
2013-02-26 21:58:00,41.0,32.0,29.62,NE,45,3.2,-999.0,70,-99.99,,,0.05,Acu-Link.com,2013-02-27 03:58:00,
2013-02-26 22:13:00,41.0,32.0,29.62,ESE,112,1.7,-999.0,70,-99.99,,,0.05,Acu-Link.com,2013-02-27 04:13:00,
2013-02-26 22:28:00,41.0,32.0,29.64,South,180,1.7,-999.0,70,-99.99,,,0.05,Acu-Link.com,2013-02-27 04:28:00,
2013-02-26 22:43:00,40.8,31.4,29.64,WNW,292,3.7,-999.0,69,-99.99,,,0.05,Acu-Link.com,2013-02-27 04:43:00,
2013-02-26 22:58:00,40.8,31.8,29.64,WNW,292,1.7,-999.0,70,-99.99,,,0.05,Acu-Link.com,2013-02-27 04:58:00,
2013-02-26 23:14:00,40.8,31.8,29.65,WSW,247,3.7,-999.0,70,-99.99,,,0.05,Acu-Link.com,2013-02-27 05:14:00,
2013-02-26 23:29:00,40.8,31.8,29.65,NNE,22,2.2,-999.0,70,-99.99,,,0.05,Acu-Link.com,2013-02-27 05:29:00,
2013-02-26 23:44:00,40.8,31.8,29.66,West,270,5.3,-999.0,70,-99.99,,,0.05,Acu-Link.com,2013-02-27 05:44:00,
2013-02-26 23:59:00,40.8,31.8,29.67,NE,45,2.7,-999.0,70,-99.99,,,0.05,Acu-Link.com,2013-02-27 05:59:00,